UPS1058 KSDF-KMHT

Flight info

Callsign UPS1058
Flight time N/A
Altitude 35000
Route EEVAA1 SHIPR PSB J49 HNK SMYTH ROZZE2
Aircraft A306/H-SDE3FGHIRWY/LB1

Departure

Time N/A
Airport Louisville Muhammad Ali International Airport (KSDF)

Arrival

Time 2026-05-03 21:21
Airport Manchester-Boston Regional Airport (KMHT)
Time Latitude Longitude Altitude Speed Heading
2026-05-03 20:15 39.77658 -80.65910 35059 ft 509 kts 55°
2026-05-03 20:15 39.81211 -80.57943 35062 ft 508 kts 55°
2026-05-03 20:16 39.84756 -80.49985 35065 ft 507 kts 55°
2026-05-03 20:16 39.88286 -80.42022 35060 ft 507 kts 55°
2026-05-03 20:17 39.91786 -80.34100 35062 ft 506 kts 55°
2026-05-03 20:17 39.95306 -80.26122 35067 ft 506 kts 55°
2026-05-03 20:18 39.98796 -80.18184 35076 ft 506 kts 56°
2026-05-03 20:18 40.02294 -80.10216 35070 ft 506 kts 56°
2026-05-03 20:19 40.05788 -80.02236 35061 ft 506 kts 56°
2026-05-03 20:19 40.09256 -79.94295 35066 ft 506 kts 56°
2026-05-03 20:20 40.12739 -79.86297 35054 ft 505 kts 56°
2026-05-03 20:20 40.15630 -79.79643 35054 ft 506 kts 56°
2026-05-03 20:21 40.19662 -79.70339 35054 ft 505 kts 56°
2026-05-03 20:21 40.22538 -79.63684 35054 ft 505 kts 56°
2026-05-03 20:22 40.25993 -79.55679 35055 ft 505 kts 56°
2026-05-03 20:22 40.29438 -79.47668 35054 ft 504 kts 56°
2026-05-03 20:23 40.32874 -79.39651 35054 ft 504 kts 56°
2026-05-03 20:23 40.36278 -79.31694 35054 ft 503 kts 56°
2026-05-03 20:24 40.39702 -79.23679 35046 ft 502 kts 57°
2026-05-03 20:24 40.43116 -79.15656 35035 ft 502 kts 57°
2026-05-03 20:25 40.46521 -79.07646 35027 ft 501 kts 57°
2026-05-03 20:25 40.49889 -78.99691 35015 ft 501 kts 57°
2026-05-03 20:26 40.53268 -78.91677 35016 ft 501 kts 57°
2026-05-03 20:26 40.56652 -78.83635 35017 ft 500 kts 57°
2026-05-03 20:27 40.59999 -78.75661 35014 ft 501 kts 57°
2026-05-03 20:27 40.63366 -78.67623 35012 ft 501 kts 57°
2026-05-03 20:28 40.66728 -78.59578 35008 ft 500 kts 57°
2026-05-03 20:28 40.70055 -78.51585 34995 ft 500 kts 58°
2026-05-03 20:29 40.73399 -78.43541 34999 ft 500 kts 58°
2026-05-03 20:29 40.76743 -78.35467 34995 ft 501 kts 58°
2026-05-03 20:30 40.80085 -78.27392 34994 ft 500 kts 58°
2026-05-03 20:30 40.83408 -78.19324 35000 ft 500 kts 58°
2026-05-03 20:31 40.86714 -78.11285 34999 ft 500 kts 58°
2026-05-03 20:31 40.90024 -78.03215 34994 ft 499 kts 58°
2026-05-03 20:32 40.93394 -77.95187 35003 ft 498 kts 56°
2026-05-03 20:32 40.96924 -77.87294 34994 ft 498 kts 56°
2026-05-03 20:33 41.00466 -77.79461 34991 ft 498 kts 56°
2026-05-03 20:33 41.04000 -77.71552 34993 ft 498 kts 56°
2026-05-03 20:34 41.07514 -77.63616 34985 ft 498 kts 56°
2026-05-03 20:34 41.10996 -77.55738 34979 ft 497 kts 56°
2026-05-03 20:35 41.14493 -77.47802 34972 ft 498 kts 56°
2026-05-03 20:35 41.17988 -77.39859 34971 ft 498 kts 57°
2026-05-03 20:36 41.21458 -77.31950 34951 ft 498 kts 57°
2026-05-03 20:36 41.24940 -77.23996 34951 ft 498 kts 57°
2026-05-03 20:37 41.28421 -77.16020 34940 ft 498 kts 57°
2026-05-03 20:37 41.31899 -77.08033 34945 ft 498 kts 57°
2026-05-03 20:38 41.35364 -77.00034 34945 ft 498 kts 57°
2026-05-03 20:38 41.38810 -76.92061 34947 ft 499 kts 57°
2026-05-03 20:39 41.42277 -76.84027 34946 ft 499 kts 57°
2026-05-03 20:39 41.45737 -76.75995 34945 ft 499 kts 57°
2026-05-03 20:40 41.49170 -76.67999 34941 ft 499 kts 58°
2026-05-03 20:40 41.52622 -76.59942 34932 ft 499 kts 58°
2026-05-03 20:41 41.56058 -76.51905 34936 ft 499 kts 58°
2026-05-03 20:41 41.59494 -76.43838 34933 ft 498 kts 58°
2026-05-03 20:42 41.62918 -76.35775 34932 ft 498 kts 58°
2026-05-03 20:42 41.66309 -76.27772 34924 ft 497 kts 58°
2026-05-03 20:43 41.69722 -76.19706 34925 ft 497 kts 58°
2026-05-03 20:43 41.73113 -76.11643 34924 ft 497 kts 58°
2026-05-03 20:44 41.76496 -76.03578 34927 ft 497 kts 58°
2026-05-03 20:44 41.79879 -75.95501 34925 ft 497 kts 59°
2026-05-03 20:45 41.83251 -75.87427 34925 ft 497 kts 59°
2026-05-03 20:45 41.86620 -75.79338 34917 ft 496 kts 59°
2026-05-03 20:46 41.89966 -75.71291 34915 ft 497 kts 59°
2026-05-03 20:46 41.93329 -75.63175 34914 ft 498 kts 59°
2026-05-03 20:47 41.96689 -75.55046 34914 ft 498 kts 59°
2026-05-03 20:47 42.00054 -75.46907 34915 ft 498 kts 59°
2026-05-03 20:48 42.03404 -75.38764 34917 ft 497 kts 59°
2026-05-03 20:48 42.06643 -75.30544 34908 ft 496 kts 64°
2026-05-03 20:49 42.09378 -75.22002 34906 ft 497 kts 66°
2026-05-03 20:49 42.12066 -75.13432 34906 ft 497 kts 66°
2026-05-03 20:50 42.14758 -75.04852 34906 ft 497 kts 66°
2026-05-03 20:50 42.17446 -74.96269 34906 ft 497 kts 66°
2026-05-03 20:51 42.20109 -74.87739 34907 ft 497 kts 66°
2026-05-03 20:51 42.22786 -74.79135 34908 ft 497 kts 66°
2026-05-03 20:52 42.25462 -74.70511 34900 ft 498 kts 66°
2026-05-03 20:52 42.28130 -74.61882 34896 ft 498 kts 66°
2026-05-03 20:53 42.30791 -74.53249 34898 ft 498 kts 66°
2026-05-03 20:53 42.33405 -74.44728 34784 ft 478 kts 66°
2026-05-03 20:53 42.34662 -74.40626 34662 ft 466 kts 66°
2026-05-03 20:54 42.35889 -74.36613 34272 ft 461 kts 66°
2026-05-03 20:54 42.38380 -74.28458 32497 ft 475 kts 66°
2026-05-03 20:54 42.39646 -74.24303 31657 ft 480 kts 66°
2026-05-03 20:55 42.40917 -74.20116 30898 ft 481 kts 65°
2026-05-03 20:55 42.42189 -74.15930 30187 ft 481 kts 65°
2026-05-03 20:55 42.43455 -74.11754 29518 ft 479 kts 65°
2026-05-03 20:55 42.44713 -74.07595 28874 ft 476 kts 65°
2026-05-03 20:56 42.45960 -74.03464 28250 ft 472 kts 65°
2026-05-03 20:56 42.47199 -73.99357 27636 ft 469 kts 65°
2026-05-03 20:56 42.48408 -73.95342 27052 ft 465 kts 65°
2026-05-03 20:56 42.49621 -73.91307 26463 ft 460 kts 65°
2026-05-03 20:57 42.50850 -73.87311 25879 ft 456 kts 64°
2026-05-03 20:57 42.52117 -73.83401 25310 ft 451 kts 63°
2026-05-03 20:57 42.53384 -73.79523 24748 ft 446 kts 63°
2026-05-03 20:57 42.54633 -73.75694 24192 ft 442 kts 63°
2026-05-03 20:58 42.55868 -73.71901 23646 ft 437 kts 63°
2026-05-03 20:58 42.57083 -73.68157 23106 ft 432 kts 63°
2026-05-03 20:58 42.58288 -73.64433 22566 ft 428 kts 63°
2026-05-03 20:58 42.59480 -73.60753 22033 ft 424 kts 63°
2026-05-03 20:59 42.60661 -73.57103 21507 ft 420 kts 63°
2026-05-03 20:59 42.61829 -73.53489 20987 ft 416 kts 63°
2026-05-03 20:59 42.62983 -73.49909 20477 ft 412 kts 63°
2026-05-03 20:59 42.64129 -73.46349 19967 ft 409 kts 63°
2026-05-03 21:00 42.65260 -73.42831 19465 ft 405 kts 63°
2026-05-03 21:00 42.65624 -73.41695 19300 ft 404 kts 63°
2026-05-03 21:00 42.67490 -73.35880 18474 ft 397 kts 63°
2026-05-03 21:00 42.68588 -73.32457 17971 ft 394 kts 63°
2026-05-03 21:01 42.69675 -73.29056 17485 ft 390 kts 63°
2026-05-03 21:01 42.70737 -73.25733 17006 ft 386 kts 63°
2026-05-03 21:01 42.71800 -73.22397 16509 ft 383 kts 63°
2026-05-03 21:01 42.72850 -73.19097 16018 ft 379 kts 63°
2026-05-03 21:02 42.73892 -73.15823 15533 ft 375 kts 63°
2026-05-03 21:02 42.74918 -73.12594 15262 ft 366 kts 63°
2026-05-03 21:02 42.75902 -73.09485 15251 ft 349 kts 63°
2026-05-03 21:02 42.76841 -73.06526 15249 ft 332 kts 62°
2026-05-03 21:03 42.77707 -73.03566 15270 ft 350 kts 74°
2026-05-03 21:03 42.77929 -73.00163 15274 ft 367 kts 85°
2026-05-03 21:03 42.78003 -72.96698 15258 ft 365 kts 86°
2026-05-03 21:03 42.78100 -72.93256 15249 ft 361 kts 85°
2026-05-03 21:04 42.78232 -72.89885 14987 ft 354 kts 84°
2026-05-03 21:04 42.78383 -72.86527 14576 ft 356 kts 84°
2026-05-03 21:04 42.78547 -72.83147 14290 ft 358 kts 83°
2026-05-03 21:04 42.78719 -72.79763 14016 ft 358 kts 83°
2026-05-03 21:05 42.78893 -72.76394 13741 ft 357 kts 83°
2026-05-03 21:05 42.79073 -72.73039 13466 ft 354 kts 83°
2026-05-03 21:05 42.79258 -72.69700 13190 ft 353 kts 83°
2026-05-03 21:05 42.79439 -72.66378 12922 ft 351 kts 83°
2026-05-03 21:06 42.79615 -72.63116 12695 ft 349 kts 83°
2026-05-03 21:06 42.79792 -72.59821 12467 ft 348 kts 83°
2026-05-03 21:06 42.79971 -72.56534 12242 ft 347 kts 83°
2026-05-03 21:06 42.80146 -72.53267 12018 ft 346 kts 83°
2026-05-03 21:07 42.80320 -72.50002 11792 ft 345 kts 83°
2026-05-03 21:07 42.80491 -72.46755 11567 ft 343 kts 83°
2026-05-03 21:07 42.80655 -72.43517 11341 ft 342 kts 83°
2026-05-03 21:07 42.80816 -72.40289 11117 ft 342 kts 83°
2026-05-03 21:08 42.80979 -72.37045 10889 ft 343 kts 83°
2026-05-03 21:08 42.81143 -72.33800 10667 ft 343 kts 83°
2026-05-03 21:08 42.81305 -72.30568 10439 ft 342 kts 83°
2026-05-03 21:08 42.81466 -72.27343 10214 ft 342 kts 83°
2026-05-03 21:09 42.81626 -72.24119 9991 ft 341 kts 83°
2026-05-03 21:09 42.81784 -72.20890 9766 ft 341 kts 83°
2026-05-03 21:09 42.81948 -72.17675 9542 ft 341 kts 83°
2026-05-03 21:09 42.82116 -72.14467 9322 ft 339 kts 82°
2026-05-03 21:10 42.82283 -72.11277 9089 ft 337 kts 82°
2026-05-03 21:10 42.82452 -72.08101 8861 ft 336 kts 82°
2026-05-03 21:10 42.82623 -72.04921 8641 ft 336 kts 82°
2026-05-03 21:10 42.82793 -72.01749 8410 ft 336 kts 82°
2026-05-03 21:11 42.82903 -71.99649 8246 ft 335 kts 83°
2026-05-03 21:11 42.83040 -71.96485 7996 ft 333 kts 83°
2026-05-03 21:11 42.83161 -71.92319 7656 ft 334 kts 89°
2026-05-03 21:11 42.82948 -71.89168 7408 ft 333 kts 92°
2026-05-03 21:12 42.82786 -71.87045 7241 ft 333 kts 93°
2026-05-03 21:12 42.82620 -71.84974 7073 ft 332 kts 93°
2026-05-03 21:12 42.82508 -71.83555 6957 ft 331 kts 93°
2026-05-03 21:12 42.82269 -71.80481 6708 ft 330 kts 92°
2026-05-03 21:13 42.82029 -71.77347 6457 ft 327 kts 93°
2026-05-03 21:13 42.81790 -71.74312 6218 ft 326 kts 92°
2026-05-03 21:13 42.81551 -71.71243 5963 ft 326 kts 92°
2026-05-03 21:13 42.81313 -71.68179 5715 ft 325 kts 93°
2026-05-03 21:14 42.81073 -71.65110 5463 ft 324 kts 92°
2026-05-03 21:14 42.80842 -71.62059 5216 ft 323 kts 92°
2026-05-03 21:14 42.80632 -71.59025 5040 ft 320 kts 92°
2026-05-03 21:14 42.80057 -71.56090 4903 ft 324 kts 117°
2026-05-03 21:15 42.78593 -71.53851 4669 ft 313 kts 145°
2026-05-03 21:15 42.76823 -71.52284 4429 ft 296 kts 149°
2026-05-03 21:15 42.75131 -71.50745 3988 ft 290 kts 146°
2026-05-03 21:15 42.73510 -71.49135 3498 ft 287 kts 142°
2026-05-03 21:16 42.72249 -71.47133 3013 ft 282 kts 111°
2026-05-03 21:16 42.71964 -71.44604 2728 ft 261 kts 76°
2026-05-03 21:16 42.72682 -71.42494 2472 ft 238 kts 46°
2026-05-03 21:16 42.73805 -71.40924 2210 ft 227 kts 37°
2026-05-03 21:17 42.74998 -71.39626 2065 ft 211 kts 32°
2026-05-03 21:17 42.76147 -71.38484 2016 ft 198 kts 31°
2026-05-03 21:17 42.77237 -71.37401 2042 ft 192 kts 31°
2026-05-03 21:17 42.78356 -71.36533 2026 ft 187 kts 18°
2026-05-03 21:18 42.79600 -71.36118 2022 ft 183 kts
2026-05-03 21:18 42.80852 -71.36217 2015 ft 180 kts 345°
2026-05-03 21:18 42.82030 -71.36762 2022 ft 179 kts 335°
2026-05-03 21:18 42.83140 -71.37438 2001 ft 168 kts 334°
2026-05-03 21:19 42.84185 -71.38060 1985 ft 162 kts 334°
2026-05-03 21:19 42.85205 -71.38657 1774 ft 157 kts 334°
2026-05-03 21:19 42.86163 -71.39224 1576 ft 143 kts 334°
2026-05-03 21:19 42.87040 -71.39740 1381 ft 134 kts 333°
2026-05-03 21:20 42.87884 -71.40241 1201 ft 134 kts 333°
2026-05-03 21:20 42.88758 -71.40756 1008 ft 139 kts 334°
2026-05-03 21:20 42.89654 -71.41284 815 ft 141 kts 334°
2026-05-03 21:20 42.90544 -71.41814 622 ft 136 kts 334°
2026-05-03 21:21 42.91415 -71.42328 428 ft 137 kts 335°
2026-05-03 21:21 42.92289 -71.42841 275 ft 136 kts 335°
2026-05-03 21:21 42.93083 -71.43313 241 ft 100 kts 335°
2026-05-03 21:21 42.93500 -71.43559 238 ft 38 kts 338°
2026-05-03 21:22 42.93696 -71.43672 234 ft 18 kts 336°
2026-05-03 21:22 42.93748 -71.43766 232 ft 10 kts 238°
2026-05-03 21:22 42.93697 -71.43817 232 ft 8 kts 200°
2026-05-03 21:22 42.93647 -71.43806 232 ft 7 kts 157°
2026-05-03 21:23 42.93608 -71.43783 234 ft 6 kts 156°
2026-05-03 21:23 42.93558 -71.43754 236 ft 15 kts 156°
2026-05-03 21:23 42.93427 -71.43676 238 ft 26 kts 156°
2026-05-03 21:23 42.93230 -71.43559 238 ft 32 kts 156°
2026-05-03 21:24 42.93029 -71.43441 240 ft 30 kts 156°
2026-05-03 21:24 42.92845 -71.43333 241 ft 28 kts 156°
2026-05-03 21:24 42.92715 -71.43284 245 ft 15 kts 209°
2026-05-03 21:24 42.92656 -71.43405 239 ft 17 kts 247°
2026-05-03 21:25 42.92608 -71.43557 237 ft 17 kts 246°
2026-05-03 21:25 42.92557 -71.43716 233 ft 19 kts 247°
2026-05-03 21:25 42.92504 -71.43882 232 ft 18 kts 245°
2026-05-03 21:25 42.92453 -71.44037 232 ft 17 kts 246°
2026-05-03 21:26 42.92413 -71.44165 232 ft 11 kts 246°
2026-05-03 21:26 42.92391 -71.44234 232 ft 6 kts 246°
2026-05-03 21:26 42.92390 -71.44236 232 ft 0 kts 246°
2026-05-03 21:27 42.92386 -71.44250 232 ft 4 kts 245°
2026-05-03 21:27 42.92374 -71.44278 232 ft 3 kts 235°
2026-05-03 21:27 42.92363 -71.44296 233 ft 2 kts 229°
2026-05-03 21:27 42.92355 -71.44308 232 ft 0 kts 229°